Find Starlink 30586

NORAD ID: 58084 Int'l Des: 2023-160 Owner: SPXS Country: US Constellation: starlink operational
LEOCIRCULAR

实时位置

正在加载3D地球...

关于 Starlink 30586

正在加载描述...

即将过境

Passes for default location (London). Set your location on the main map for personalized predictions.

高度历史

Loading altitude history...

两行轨道根数

1 58084U 23160K 26107.25003472 .00038483 00000-0 14016-2 0 9996
2 58084 43.0022 223.5296 0001757 262.9576 73.7017 15.27557718 5888
Epoch: Apr 17, 2026 • Age: 10 hours

当前状态

高度 488.6 km
速度 7.62 km/s
星下点 -25.64°S, 21.07°W
发射日期 Oct 18, 2023
运行时间 2.4 years
类型 internet

技术详情

分类 Payload
质量 730.00 kg
干质量 700.00 kg
总质量 730.00 kg
长度 0.30 m
直径 4.10 m
跨度 29.00 m
形状 Box + pan
制造商 SPXS
平台类型 Starlink V2M
阶段状态 In Orbit
所有者/国家 SPXS/US

Most Searched